[[{"header":{"parameterUnit":"m.s-1","parameterCategory":2,"la1":30.2991,"la2":30.254,"lo1":-89.0895,"lo2":-89.0444,"dy":0.0017,"dx":0.0017,"nx":28,"ny":28,"refTime":"2026-02-10T09:00:00:Z","depth":"0","parameterNumber":2,"parameterNumberName":"U-component_of_CURRENTS"},"data":[0,0,0,0,0,0,0,0,0,0,0,0,0,0,0,0,0,0,0,0,0,0,0,0,0,0,0,0,0,0,0,0,0,0,0,0,0,0,0,0,0,0,0,0,0,0,0,0,0,0,0,0,0,0,0,0,0,0,-0.2279,-0.228,0,-0.2237,-0.2236,-0.2234,-0.2211,-0.2212,-0.2213,-0.2214,-0.2066,-0.2062,-0.2057,0,0,0,0,0,0,0,0,0,0,0,0,0,-0.2189,-0.219,-0.2279,-0.228,-0.228,-0.2237,-0.2236,-0.2234,-0.2211,-0.2212,-0.2213,-0.2214,-0.2068,-0.2062,-0.2056,0,0,0,0,0,0,0,0,0,0,0,0,0,-0.2185,-0.2191,-0.2279,-0.2272,-0.2272,-0.2238,-0.2235,-0.2233,-0.221,-0.2212,-0.2214,-0.2215,-0.207,-0.2063,-0.2056,-0.198,0,0,-0.2033,-0.203,0,0,0,0,0,0,0,0,-0.2185,-0.2186,-0.2273,-0.2273,-0.2273,-0.2241,-0.215,-0.2147,-0.221,-0.2221,-0.2214,-0.2216,-0.2122,-0.211,-0.2084,-0.1973,-0.1967,-0.2033,-0.2028,-0.2025,-0.2023,0,0,0,0,0,0,0,-0.2185,-0.2187,-0.225,-0.2273,-0.2273,-0.2221,-0.2222,-0.2148,-0.2152,-0.222,-0.2222,-0.2235,-0.212,-0.2091,-0.208,-0.1964,-0.2033,-0.2026,-0.2022,-0.2019,-0.1801,-0.1799,0,0,0,0,0,0,-0.2221,-0.2189,-0.2252,-0.225,-0.2245,-0.2223,-0.2223,-0.224,-0.2155,-0.2148,-0.2234,-0.2235,-0.2102,-0.2088,-0.2075,-0.2025,-0.2025,-0.2018,-0.2014,-0.1802,-0.18,-0.1799,0,0,0,0,0,0,-0.2219,-0.2227,-0.2254,-0.2227,-0.2229,-0.2225,-0.2242,-0.2239,-0.2221,-0.2169,-0.2158,-0.2225,-0.2103,-0.2085,-0.2008,-0.2018,-0.2015,-0.2008,-0.1804,-0.1802,-0.18,-0.1897,0,0,0,0,0,0,-0.2217,-0.2226,-0.2222,-0.223,-0.2232,-0.2246,-0.2242,-0.2237,-0.2233,-0.2233,-0.2156,-0.2144,-0.2103,-0.202,-0.2001,-0.2008,-0.2003,-0.1806,-0.1803,-0.18,-0.1895,-0.1898,-0.1901,0,0,0,0,0,-0.2213,-0.2215,-0.2222,-0.2229,-0.2236,-0.2247,-0.2241,-0.2234,-0.2231,-0.2222,-0.2164,-0.2147,-0.1991,-0.2012,-0.1991,-0.1996,-0.1807,-0.1804,-0.1801,-0.1894,-0.1898,-0.19,0,0,0,0,0,0,-0.2149,-0.2215,-0.2222,-0.2236,-0.2248,-0.2248,-0.2239,-0.2235,-0.218,-0.2176,-0.2118,-0.2099,-0.204,-0.1987,-0.2013,-0.192,-0.1899,-0.1892,-0.1977,-0.198,-0.1983,-0.2024,-0.1997,0,0,0,0,0,-0.2142,-0.2171,-0.2211,-0.2214,-0.2234,-0.2233,-0.2228,-0.2233,-0.2205,-0.2184,-0.213,-0.2064,-0.2004,-0.1972,-0.1905,-0.1844,-0.1851,-0.1832,-0.1835,-0.1838,-0.1854,-0.1901,-0.1912,-0.1789,-0.1789,-0.1789,0,0,-0.2115,-0.2154,-0.2165,-0.2204,-0.2212,-0.2235,-0.2231,-0.2243,-0.2238,-0.2172,-0.2121,-0.2066,-0.1987,-0.193,-0.19,-0.1893,-0.1867,-0.1834,-0.1838,-0.1852,-0.1899,-0.1912,-0.1924,-0.1786,-0.1787,-0.1787,0,0,-0.2101,-0.2119,-0.2154,-0.2175,-0.2217,-0.2222,-0.2235,-0.2241,-0.2223,-0.2176,-0.2131,-0.2087,-0.1978,-0.1943,-0.1907,-0.1876,-0.188,-0.1846,-0.1898,-0.1945,-0.1958,-0.1969,-0.1975,-0.1986,-0.1852,-0.1852,-0.1852,0,-0.2062,-0.2117,-0.2153,-0.2194,-0.2215,-0.2228,-0.2258,-0.2236,-0.2204,-0.2199,-0.2173,-0.2065,-0.1993,-0.1958,-0.1942,-0.189,-0.1906,-0.1904,-0.1957,-0.1968,-0.1979,-0.1982,-0.1994,-0.1856,-0.1856,-0.1855,-0.1855,0,-0.209,-0.2126,-0.2146,-0.2213,-0.2228,-0.2254,-0.227,-0.2261,-0.2245,-0.2236,-0.22,-0.2112,-0.2064,-0.2027,-0.1967,-0.199,-0.1973,-0.1963,-0.1971,-0.1999,-0.1998,-0.2008,-0.1862,-0.1861,-0.1859,-0.1858,0,0,-0.2023,-0.2148,-0.2148,-0.2198,-0.2248,-0.2271,-0.2275,-0.2299,-0.2328,-0.2273,-0.2308,-0.2186,-0.2172,-0.2128,-0.2064,-0.2086,-0.2143,-0.2056,-0.2056,-0.2099,-0.2234,-0.2121,-0.2121,-0.2166,-0.2169,-0.2171,-0.22,0,-0.2032,-0.2123,-0.2174,-0.2233,-0.2287,-0.2315,-0.2328,-0.2344,-0.2346,-0.2372,-0.2321,-0.2304,-0.2201,-0.2191,-0.2197,-0.216,-0.2177,-0.2135,-0.2166,-0.2166,-0.2097,-0.2132,-0.2,-0.2008,-0.221,-0.2211,-0.2213,0,-0.2042,-0.2109,-0.2181,-0.2294,-0.232,-0.2343,-0.2407,-0.2421,-0.2461,-0.2471,-0.2471,-0.2441,-0.2419,-0.2355,-0.2332,-0.2317,-0.2278,-0.2256,-0.2257,-0.2132,-0.2074,-0.201,-0.2018,-0.1999,-0.2228,-0.2227,-0.2226,0,-0.1995,-0.2112,-0.2173,-0.2203,-0.2316,-0.2346,-0.2392,-0.2444,-0.2468,-0.2538,-0.2568,-0.2569,-0.2537,-0.2537,-0.2406,-0.2407,-0.2403,-0.2406,-0.2269,-0.2259,-0.2139,-0.2114,-0.2166,-0.2428,-0.2427,-0.2427,-0.2427,0,-0.199,-0.2037,-0.2161,-0.2189,-0.2265,-0.2344,-0.2412,-0.2465,-0.2544,-0.256,-0.2603,-0.2584,-0.2585,-0.2546,-0.2486,-0.2374,-0.2456,-0.2289,-0.2272,-0.2159,-0.2137,-0.2105,-0.2125,-0.2428,-0.2428,-0.2428,-0.2428,0,-0.1925,-0.2007,-0.2085,-0.2206,-0.2246,-0.2289,-0.2408,-0.2451,-0.2537,-0.2566,-0.2583,-0.2607,-0.2556,-0.2526,-0.2499,-0.2423,-0.2322,-0.2307,-0.2143,-0.2105,-0.199,-0.2018,-0.2052,-0.1989,-0.2229,-0.2227,-0.2225,0,-0.1906,-0.1937,-0.2062,-0.2094,-0.2145,-0.2232,-0.2279,-0.2412,-0.2442,-0.2515,-0.2504,-0.2505,-0.2425,-0.2365,-0.228,-0.2215,-0.22,-0.2052,-0.203,-0.1975,-0.1996,-0.2025,-0.1972,-0.1904,-0.1899,-0.1896,-0.1893,0,-0.1837,-0.187,-0.1921,-0.2001,-0.2056,-0.2132,-0.2206,-0.224,-0.2343,-0.2362,-0.233,-0.2297,-0.2236,-0.21,-0.2028,-0.1964,-0.2006,-0.1973,-0.1984,-0.1802,-0.1774,-0.1704,-0.1875,-0.186,-0.1863,-0.1866,-0.1867,-0.1869,-0.1749,-0.1759,-0.1814,-0.188,-0.1948,-0.1983,-0.1985,-0.204,-0.2057,-0.2028,-0.2089,-0.1997,-0.1947,-0.1833,-0.1769,-0.166,-0.1755,-0.1617,-0.1672,-0.1719,-0.1613,-0.1683,-0.1603,-0.1605,-0.1606,-0.1607,-0.1609,0,-0.1625,-0.1644,-0.1692,-0.1754,-0.1772,-0.1855,-0.1888,-0.1833,-0.1762,-0.1773,-0.1722,-0.1677,-0.1549,-0.1538,-0.1455,-0.1385,-0.1364,-0.1366,-0.14,-0.1372,-0.1482,-0.1418,-0.1211,-0.1211,-0.1211,-0.1211,-0.1211,-0.1211,-0.1554,-0.1534,-0.1567,-0.1551,-0.1592,-0.155,-0.153,-0.144,-0.1411,-0.1302,-0.1295,-0.1329,-0.1346,-0.1468,-0.1358,-0.1279,-0.1274,-0.1218,-0.1281,-0.1378,-0.1407,-0.1434,-0.1378,-0.1167,-0.1167,-0.1086,-0.1085,-0.1085]},{"header":{"parameterUnit":"m.s-1","parameterCategory":2,"la1":30.2991,"la2":30.254,"lo1":-89.0895,"lo2":-89.0444,"dy":0.0017,"dx":0.0017,"nx":28,"ny":28,"refTime":"2026-02-10T09:00:00:Z","depth":"0","parameterNumber":3,"parameterNumberName":"V-component_of_CURRENTS"},"data":[0,0,0,0,0,0,0,0,0,0,0,0,0,0,0,0,0,0,0,0,0,0,0,0,0,0,0,0,0,0,0,0,0,0,0,0,0,0,0,0,0,0,0,0,0,0,0,0,0,0,0,0,0,0,0,0,0,0,0.0129,0.0131,0,0.0287,0.0289,0.029,0.0342,0.0342,0.0341,0.0341,0.0394,0.0396,0.0397,0,0,0,0,0,0,0,0,0,0,0,0,0,-0.004,-0.0038,0.0129,0.0131,0.0133,0.0287,0.0289,0.0291,0.0342,0.0342,0.0341,0.034,0.0393,0.0395,0.0398,0,0,0,0,0,0,0,0,0,0,0,0,0,0.0064,-0.0038,0.0129,0.0179,0.0186,0.0286,0.0289,0.0291,0.0342,0.0342,0.0341,0.034,0.0392,0.0395,0.0398,0.0429,0,0,0.0406,0.0408,0,0,0,0,0,0,0,0,0.0058,0.007,0.017,0.0176,0.0183,0.0296,0.0249,0.0333,0.0342,0.028,0.0341,0.034,0.0354,0.036,0.0389,0.0431,0.0433,0.0407,0.0408,0.0409,0.041,0,0,0,0,0,0,0,0.0051,0.0064,0.0189,0.0172,0.0181,0.0225,0.0238,0.0266,0.0315,0.0286,0.029,0.0312,0.0356,0.0386,0.039,0.0434,0.0406,0.0409,0.0411,0.0412,0.0478,0.0478,0,0,0,0,0,0,0.0033,0.0057,0.0184,0.0194,0.0121,0.0228,0.0243,0.0259,0.0317,0.0327,0.0313,0.0314,0.0382,0.0387,0.0392,0.0382,0.0409,0.0412,0.0414,0.0478,0.0478,0.0478,0,0,0,0,0,0,0.0029,0.0042,0.0178,0.0131,0.0152,0.0231,0.0249,0.0262,0.0289,0.0339,0.0346,0.0326,0.0381,0.0388,0.0414,0.0386,0.0413,0.0416,0.0477,0.0478,0.0478,0.0394,0,0,0,0,0,0,0.0023,0.004,0.003,0.013,0.0154,0.0222,0.0251,0.0266,0.0305,0.0308,0.0353,0.0358,0.0381,0.041,0.0417,0.039,0.0418,0.0477,0.0477,0.0478,0.0396,0.0391,0.0386,0,0,0,0,0,0.0016,-0.0005,0.0029,0.0044,0.0143,0.0222,0.0237,0.0291,0.0306,0.0313,0.0348,0.0356,0.0415,0.0413,0.0421,0.0394,0.0477,0.0477,0.0478,0.0399,0.0392,0.0387,0,0,0,0,0,0,-0.0101,0.0003,0.004,0.0047,0.0127,0.0231,0.0236,0.0288,0.0326,0.0321,0.0366,0.0373,0.0382,0.0411,0.0407,0.0417,0.0444,0.0446,0.0382,0.0376,0.0371,0.0338,0.042,0,0,0,0,0,-0.0124,-0.0107,0.0007,0.0009,0.0048,0.0146,0.018,0.0229,0.0287,0.0304,0.0341,0.0373,0.0393,0.0401,0.0429,0.044,0.0483,0.0428,0.0423,0.0419,0.04,0.0457,0.0455,0.0478,0.0478,0.0478,0,0,-0.0171,-0.0112,-0.0105,-0.0013,0.0049,0.009,0.0162,0.0213,0.023,0.0301,0.0315,0.0358,0.0395,0.0403,0.0409,0.0419,0.0439,0.0419,0.0414,0.0397,0.0457,0.0454,0.0452,0.0479,0.0479,0.0478,0,0,-0.0241,-0.0198,-0.0193,-0.0127,-0.0027,0.0034,0.0048,0.0159,0.0185,0.0229,0.027,0.0301,0.0347,0.0364,0.0377,0.0365,0.0413,0.0373,0.0315,0.037,0.0368,0.0367,0.0433,0.0439,0.0367,0.0367,0.0367,0,-0.0304,-0.0271,-0.0183,-0.0148,-0.0113,0.0003,0.002,0.0069,0.0168,0.0182,0.0214,0.0291,0.0322,0.0326,0.0317,0.0348,0.0398,0.0329,0.0362,0.0361,0.0361,0.043,0.0437,0.0363,0.0363,0.0364,0.0364,0,-0.0343,-0.0318,-0.0312,-0.0234,-0.0191,-0.0157,-0.0063,-0.0031,0.0022,0.0082,0.0118,0.0187,0.0227,0.0244,0.0272,0.028,0.0323,0.035,0.037,0.0353,0.0428,0.0436,0.0357,0.0358,0.036,0.0361,0,0,-0.0473,-0.0363,-0.036,-0.0336,-0.0231,-0.0199,-0.0182,-0.0122,-0.0111,-0.0024,-0.0004,0.0042,0.01,0.012,0.0173,0.0218,0.0267,0.0273,0.0278,0.0326,0.0404,0.0392,0.0401,0.0304,0.0305,0.0305,0.046,0,-0.0526,-0.0499,-0.0429,-0.042,-0.0395,-0.0303,-0.0298,-0.0237,-0.017,-0.0122,-0.0044,0.0001,0.0046,0.0077,0.0122,0.0248,0.0283,0.0222,0.0423,0.0429,0.041,0.0408,0.0443,0.0579,0.0469,0.0471,0.0472,0,-0.0573,-0.0549,-0.0547,-0.0497,-0.0482,-0.0469,-0.0432,-0.0402,-0.0314,-0.0264,-0.0197,-0.0106,-0.0028,0.0019,0.0192,0.0157,0.0249,0.0344,0.0353,0.037,0.0432,0.0577,0.06,0.076,0.0485,0.0484,0.0483,0,-0.0685,-0.0634,-0.0646,-0.0621,-0.0549,-0.0553,-0.0526,-0.0452,-0.0428,-0.0338,-0.0291,-0.0181,-0.0089,0.0032,0.0218,0.0215,0.0423,0.0452,0.0521,0.0524,0.0603,0.061,0.0788,0.0534,0.0534,0.0533,0.0533,0,-0.0757,-0.076,-0.0698,-0.0697,-0.073,-0.0647,-0.066,-0.0614,-0.0535,-0.0497,-0.037,-0.0299,-0.0078,0.0077,0.0209,0.0399,0.0418,0.0504,0.0554,0.0577,0.0579,0.0761,0.0818,0.0539,0.0538,0.0537,0.0536,0,-0.0849,-0.0805,-0.0814,-0.0775,-0.077,-0.0793,-0.0744,-0.0737,-0.0652,-0.0589,-0.0557,-0.0353,-0.0152,0.0051,0.0296,0.0406,0.0669,0.0618,0.0631,0.0676,0.0864,0.0913,0.111,0.1202,0.0731,0.0732,0.0732,0,-0.0882,-0.0894,-0.0889,-0.0908,-0.0888,-0.0896,-0.0897,-0.0819,-0.0789,-0.062,-0.0589,-0.0373,-0.023,0.0122,0.0362,0.0594,0.0705,0.0753,0.0725,0.0868,0.0964,0.1001,0.1068,0.0827,0.0828,0.0829,0.083,0,-0.0945,-0.0947,-0.0958,-0.1006,-0.1021,-0.1031,-0.101,-0.1004,-0.0886,-0.0806,-0.0652,-0.0519,-0.0168,0.014,0.0443,0.0583,0.087,0.0775,0.0943,0.1049,0.1088,0.1203,0.074,0.0838,0.0837,0.0837,0.0836,0.0836,-0.0988,-0.1027,-0.1049,-0.1096,-0.1122,-0.1138,-0.114,-0.109,-0.1036,-0.0872,-0.0724,-0.0479,-0.0021,0.0414,0.0579,0.0965,0.0928,0.1088,0.1142,0.117,0.1231,0.0763,0.0891,0.089,0.089,0.0889,0.0889,0,-0.1027,-0.1069,-0.1128,-0.1176,-0.122,-0.1208,-0.119,-0.1159,-0.1089,-0.0895,-0.0731,-0.0201,0.0213,0.0629,0.1151,0.1353,0.1418,0.1455,0.1556,0.161,0.1235,0.121,0.1389,0.1389,0.1389,0.1388,0.1388,0.1388,-0.1045,-0.1113,-0.1153,-0.1241,-0.1273,-0.13,-0.1286,-0.1212,-0.1071,-0.0748,-0.0417,-0.0146,0.0476,0.1245,0.1724,0.1766,0.1962,0.1919,0.202,0.1798,0.1769,0.1742,0.1735,0.2021,0.2022,0.2406,0.2409,0.2412]}],[{"header":{"parameterUnit":"m.s-1","parameterCategory":2,"la1":30.2991,"la2":30.254,"lo1":-89.0895,"lo2":-89.0444,"dy":0.0017,"dx":0.0017,"nx":28,"ny":28,"refTime":"2026-02-10T09:00:00:Z","depth":"2","parameterNumber":2,"parameterNumberName":"U-component_of_CURRENTS"},"data":[0,0,0,0,0,0,0,0,0,0,0,0,0,0,0,0,0,0,0,0,0,0,0,0,0,0,0,0,0,0,0,0,0,0,0,0,0,0,0,0,0,0,0,0,0,0,0,0,0,0,0,0,0,0,0,0,0,0,-0.1951,-0.1952,0,-0.1984,-0.1984,-0.1985,-0.1983,-0.1982,-0.1982,-0.1981,-0.2003,-0.2004,-0.2005,0,0,0,0,0,0,0,0,0,0,0,0,0,-0.1868,-0.187,-0.1951,-0.1952,-0.1952,-0.1984,-0.1985,-0.1985,-0.1983,-0.1982,-0.1982,-0.1981,-0.2003,-0.2004,-0.2005,0,0,0,0,0,0,0,0,0,0,0,0,0,-0.1903,-0.1871,-0.1951,-0.1955,-0.1955,-0.1984,-0.1985,-0.1985,-0.1983,-0.1982,-0.1982,-0.1981,-0.2002,-0.2004,-0.2005,-0.203,0,0,-0.201,-0.2011,0,0,0,0,0,0,0,0,-0.1901,-0.1906,-0.1954,-0.1955,-0.1955,-0.1979,-0.1963,-0.1999,-0.1983,-0.1973,-0.1981,-0.1981,-0.1994,-0.1996,-0.2005,-0.2031,-0.2032,-0.201,-0.2011,-0.2012,-0.2012,0,0,0,0,0,0,0,-0.1899,-0.1905,-0.1964,-0.1954,-0.1955,-0.1948,-0.1953,-0.197,-0.1987,-0.1974,-0.1974,-0.1977,-0.1995,-0.2003,-0.2005,-0.2032,-0.201,-0.2012,-0.2013,-0.2013,-0.2111,-0.2112,0,0,0,0,0,0,-0.1897,-0.1903,-0.1963,-0.1965,-0.1926,-0.1951,-0.1955,-0.1972,-0.1987,-0.1989,-0.1978,-0.1977,-0.2001,-0.2003,-0.2006,-0.2072,-0.2012,-0.2013,-0.2014,-0.2109,-0.2111,-0.2113,0,0,0,0,0,0,-0.1895,-0.1902,-0.1962,-0.1934,-0.1941,-0.1953,-0.1971,-0.1973,-0.1985,-0.1991,-0.1992,-0.1988,-0.2,-0.2004,-0.2029,-0.2071,-0.2014,-0.2015,-0.2107,-0.211,-0.2112,-0.2181,0,0,0,0,0,0,-0.1893,-0.1902,-0.1913,-0.1934,-0.1942,-0.1979,-0.1972,-0.1974,-0.1988,-0.1987,-0.2,-0.2001,-0.2,-0.2026,-0.203,-0.2073,-0.2017,-0.2105,-0.2108,-0.2111,-0.2177,-0.2186,-0.2194,0,0,0,0,0,-0.189,-0.1905,-0.1913,-0.192,-0.1957,-0.198,-0.1984,-0.1989,-0.1989,-0.1997,-0.2009,-0.2001,-0.2049,-0.2029,-0.2033,-0.2077,-0.2104,-0.2107,-0.2111,-0.2173,-0.2184,-0.2193,0,0,0,0,0,0,-0.1866,-0.1907,-0.1916,-0.1941,-0.196,-0.1979,-0.1989,-0.1995,-0.2013,-0.2016,-0.2017,-0.202,-0.2057,-0.2057,-0.2034,-0.2114,-0.2077,-0.2082,-0.2123,-0.2134,-0.2142,-0.2132,-0.2018,0,0,0,0,0,-0.1869,-0.1896,-0.1926,-0.1944,-0.1958,-0.1977,-0.1987,-0.1996,-0.2013,-0.202,-0.2032,-0.2051,-0.2077,-0.2095,-0.2108,-0.2153,-0.2123,-0.2186,-0.2194,-0.2201,-0.2196,-0.2205,-0.2213,-0.2125,-0.2125,-0.2125,0,0,-0.1867,-0.1889,-0.1906,-0.1941,-0.196,-0.1994,-0.1982,-0.2005,-0.204,-0.2021,-0.2069,-0.2074,-0.2092,-0.214,-0.2158,-0.2146,-0.2205,-0.2206,-0.2212,-0.2203,-0.221,-0.2218,-0.2225,-0.2128,-0.2127,-0.2127,0,0,-0.1874,-0.1898,-0.1925,-0.1956,-0.1988,-0.2002,-0.2011,-0.2042,-0.2063,-0.2107,-0.2106,-0.2135,-0.2174,-0.22,-0.2218,-0.2282,-0.2241,-0.2291,-0.2337,-0.2347,-0.2353,-0.2359,-0.2305,-0.2305,-0.2306,-0.2306,-0.2306,0,-0.1867,-0.1912,-0.1932,-0.1974,-0.1996,-0.2011,-0.2044,-0.208,-0.2114,-0.2136,-0.2129,-0.2198,-0.2208,-0.2278,-0.2297,-0.2303,-0.2272,-0.2299,-0.2356,-0.2362,-0.2366,-0.231,-0.2309,-0.231,-0.2309,-0.2309,-0.2308,0,-0.1907,-0.1947,-0.1966,-0.2027,-0.2047,-0.2081,-0.2127,-0.2165,-0.2186,-0.221,-0.2271,-0.2292,-0.2329,-0.235,-0.2343,-0.2397,-0.2349,-0.2357,-0.2328,-0.2379,-0.2316,-0.2314,-0.2315,-0.2314,-0.2313,-0.2312,0,0,-0.1895,-0.1976,-0.199,-0.2012,-0.2081,-0.2091,-0.2172,-0.2225,-0.227,-0.2317,-0.236,-0.2426,-0.2421,-0.244,-0.2448,-0.2463,-0.2461,-0.2424,-0.2422,-0.2362,-0.2429,-0.2363,-0.2353,-0.2478,-0.2479,-0.248,-0.2361,0,-0.192,-0.1991,-0.2026,-0.208,-0.2115,-0.2163,-0.2237,-0.229,-0.2325,-0.2372,-0.2418,-0.2454,-0.2466,-0.2477,-0.2502,-0.2459,-0.2464,-0.2489,-0.2394,-0.239,-0.2321,-0.2353,-0.2176,-0.2054,-0.2359,-0.2358,-0.2358,0,-0.1953,-0.1996,-0.2055,-0.2112,-0.2132,-0.2174,-0.2253,-0.2311,-0.24,-0.2434,-0.2487,-0.2493,-0.2528,-0.2524,-0.251,-0.252,-0.2481,-0.2452,-0.2447,-0.236,-0.2322,-0.2058,-0.2038,-0.2355,-0.2355,-0.2355,-0.2355,0,-0.1916,-0.2003,-0.2036,-0.2067,-0.2154,-0.2194,-0.2239,-0.2334,-0.2364,-0.2452,-0.2454,-0.2523,-0.2516,-0.2517,-0.2473,-0.248,-0.2424,-0.2428,-0.2334,-0.2326,-0.2143,-0.2118,-0.2424,-0.2424,-0.2424,-0.2424,-0.2425,0,-0.1918,-0.1947,-0.2031,-0.2053,-0.2109,-0.2175,-0.2212,-0.2305,-0.2373,-0.2386,-0.2465,-0.2475,-0.2512,-0.2486,-0.2463,-0.2382,-0.2423,-0.2331,-0.2305,-0.2159,-0.2139,-0.2383,-0.238,-0.242,-0.2421,-0.2422,-0.2423,0,-0.1866,-0.1929,-0.1968,-0.2061,-0.2088,-0.2127,-0.2171,-0.2181,-0.2293,-0.2304,-0.2322,-0.2402,-0.2381,-0.2392,-0.2364,-0.2337,-0.2291,-0.2259,-0.2058,-0.2012,-0.2174,-0.2176,-0.2114,-0.2111,-0.2109,-0.2106,-0.2105,0,-0.1879,-0.188,-0.1944,-0.1958,-0.1997,-0.2041,-0.2049,-0.2145,-0.2148,-0.2249,-0.2239,-0.2257,-0.2242,-0.2184,-0.2155,-0.2092,-0.2197,-0.1902,-0.1911,-0.2168,-0.2149,-0.2155,-0.216,-0.1667,-0.1662,-0.1658,-0.1655,0,-0.1886,-0.1877,-0.1889,-0.1864,-0.1873,-0.1869,-0.1902,-0.1906,-0.2001,-0.2029,-0.2074,-0.2074,-0.2042,-0.192,-0.1873,-0.1827,-0.1904,-0.1813,-0.2131,-0.1798,-0.1745,-0.1727,-0.1747,-0.1616,-0.162,-0.1623,-0.1625,-0.1627,-0.1881,-0.1861,-0.1812,-0.1774,-0.1754,-0.1712,-0.1669,-0.1701,-0.1707,-0.1755,-0.1849,-0.1807,-0.1809,-0.1643,-0.1566,-0.1514,-0.1649,-0.158,-0.1593,-0.1611,-0.1606,-0.1555,-0.1384,-0.1386,-0.1388,-0.139,-0.1392,0,-0.1847,-0.1778,-0.1726,-0.1644,-0.1507,-0.1556,-0.1553,-0.1499,-0.1478,-0.1532,-0.1553,-0.1412,-0.1321,-0.1333,-0.1183,-0.1161,-0.1157,-0.1119,-0.1109,-0.1146,-0.118,-0.1155,-0.0811,-0.081,-0.0808,-0.0807,0,0,-0.1807,-0.1715,-0.164,-0.1416,-0.1338,-0.1188,-0.1171,-0.1168,-0.1192,-0.1167,-0.115,-0.1247,-0.1279,-0.1047,-0.0993,-0.0874,-0.1002,-0.0828,-0.1289,-0.1313,-0.1345,-0.1437,-0.1439,0,0,0,0,0]},{"header":{"parameterUnit":"m.s-1","parameterCategory":2,"la1":30.2991,"la2":30.254,"lo1":-89.0895,"lo2":-89.0444,"dy":0.0017,"dx":0.0017,"nx":28,"ny":28,"refTime":"2026-02-10T09:00:00:Z","depth":"2","parameterNumber":3,"parameterNumberName":"V-component_of_CURRENTS"},"data":[0,0,0,0,0,0,0,0,0,0,0,0,0,0,0,0,0,0,0,0,0,0,0,0,0,0,0,0,0,0,0,0,0,0,0,0,0,0,0,0,0,0,0,0,0,0,0,0,0,0,0,0,0,0,0,0,0,0,-0.0244,-0.0244,0,-0.0215,-0.0214,-0.0214,-0.0173,-0.0172,-0.0172,-0.0171,-0.0078,-0.0076,-0.0074,0,0,0,0,0,0,0,0,0,0,0,0,0,-0.0225,-0.0226,-0.0244,-0.0244,-0.0244,-0.0215,-0.0214,-0.0214,-0.0173,-0.0172,-0.0172,-0.0171,-0.0079,-0.0076,-0.0074,0,0,0,0,0,0,0,0,0,0,0,0,0,-0.0216,-0.0226,-0.0244,-0.0222,-0.022,-0.0215,-0.0214,-0.0214,-0.0173,-0.0172,-0.0172,-0.0171,-0.0079,-0.0076,-0.0073,-0.0069,0,0,-0.0064,-0.0063,0,0,0,0,0,0,0,0,-0.0217,-0.0217,-0.0225,-0.0223,-0.0221,-0.0199,-0.0174,-0.0163,-0.0173,-0.0188,-0.0171,-0.0171,-0.0115,-0.0109,-0.0102,-0.0064,-0.006,-0.0064,-0.0062,-0.0061,-0.006,0,0,0,0,0,0,0,-0.0218,-0.0218,-0.023,-0.0225,-0.0223,-0.02,-0.0198,-0.0171,-0.0153,-0.0187,-0.0184,-0.0185,-0.0112,-0.0105,-0.0099,-0.0059,-0.0064,-0.0061,-0.0059,-0.0058,0.003,0.003,0,0,0,0,0,0,-0.0229,-0.0219,-0.0231,-0.0229,-0.022,-0.0201,-0.0199,-0.0205,-0.0154,-0.0147,-0.0186,-0.0184,-0.0111,-0.0103,-0.0096,-0.0057,-0.0061,-0.0058,-0.0056,0.0029,0.003,0.003,0,0,0,0,0,0,-0.0229,-0.0231,-0.0232,-0.0225,-0.0224,-0.0203,-0.0209,-0.0205,-0.0195,-0.0155,-0.0146,-0.0182,-0.011,-0.01,-0.0075,-0.0054,-0.0056,-0.0054,0.0029,0.003,0.003,0.0001,0,0,0,0,0,0,-0.0229,-0.0231,-0.0237,-0.0226,-0.0225,-0.0236,-0.021,-0.0205,-0.0198,-0.0195,-0.0148,-0.0139,-0.0109,-0.008,-0.0072,-0.005,-0.0051,0.0028,0.0029,0.003,0.0001,0.0,-0.0,0,0,0,0,0,-0.0228,-0.0246,-0.0238,-0.0239,-0.0234,-0.0237,-0.0234,-0.0214,-0.0199,-0.0202,-0.0168,-0.014,-0.0067,-0.0078,-0.0068,-0.0045,0.0028,0.0029,0.003,0.0001,0.0001,-0.0,0,0,0,0,0,0,-0.0236,-0.0244,-0.0234,-0.0251,-0.0245,-0.0231,-0.0233,-0.0219,-0.0195,-0.0188,-0.0145,-0.0134,-0.0101,-0.0074,-0.0086,-0.0016,-0.0011,-0.0008,-0.0035,-0.0036,-0.0036,-0.0059,-0.0049,0,0,0,0,0,-0.0243,-0.026,-0.0255,-0.0267,-0.0267,-0.0249,-0.0246,-0.0234,-0.0215,-0.0204,-0.0169,-0.0127,-0.009,-0.0066,-0.0035,-0.0003,0.0019,0.0022,0.0021,0.002,0.0009,0.0078,0.0083,0.0034,0.0034,0.0034,0,0,-0.0248,-0.0255,-0.0263,-0.027,-0.0262,-0.027,-0.0245,-0.0247,-0.0239,-0.0197,-0.0171,-0.0135,-0.0086,-0.0049,-0.003,-0.0021,0.004,0.0021,0.002,0.0009,0.008,0.0085,0.0089,0.0035,0.0035,0.0035,0,0,-0.0279,-0.0274,-0.0302,-0.0297,-0.0297,-0.0287,-0.029,-0.0274,-0.0251,-0.0232,-0.019,-0.0145,-0.0099,-0.0048,-0.002,-0.0006,0.0028,0.0009,-0.0003,0.0065,0.007,0.0074,0.008,0.0086,0.0018,0.0018,0.0018,0,-0.0282,-0.0317,-0.0307,-0.0325,-0.0327,-0.0298,-0.0318,-0.0291,-0.0263,-0.0242,-0.0229,-0.0135,-0.0095,-0.003,-0.0028,-0.0005,0.0013,-0.0005,0.0064,0.0069,0.0074,0.008,0.0086,0.0017,0.0017,0.0017,0.0017,0,-0.033,-0.0351,-0.0364,-0.0379,-0.0377,-0.0388,-0.0357,-0.0337,-0.0308,-0.0277,-0.0215,-0.015,-0.0091,-0.0063,-0.0047,0.0018,0.0009,0.0048,0.0063,0.0077,0.0082,0.0089,0.0015,0.0015,0.0016,0.0016,0,0,-0.0351,-0.0395,-0.0396,-0.0419,-0.0406,-0.0417,-0.0391,-0.0369,-0.0348,-0.0288,-0.0254,-0.0171,-0.0125,-0.009,-0.0035,0.0022,0.0062,0.0038,0.0043,0.0036,0.0164,0.0206,0.0217,0.0116,0.0118,0.0119,0.0143,0,-0.039,-0.0456,-0.0454,-0.0495,-0.0525,-0.0483,-0.0462,-0.0426,-0.0379,-0.0333,-0.0235,-0.0184,-0.0133,-0.0102,-0.0033,0.0029,0.0083,0.0049,0.0158,0.0159,0.0191,0.0229,0.021,0.0235,0.0149,0.0151,0.0151,0,-0.0434,-0.0475,-0.0538,-0.0567,-0.0571,-0.0574,-0.0543,-0.0524,-0.0435,-0.039,-0.0303,-0.0237,-0.0148,-0.0101,0.0034,0.0006,0.0077,0.0132,0.0136,0.0191,0.0217,0.0215,0.0251,0.0163,0.0162,0.0161,0.0161,0,-0.0479,-0.053,-0.0592,-0.0598,-0.0616,-0.0613,-0.0607,-0.0538,-0.0519,-0.0424,-0.0398,-0.027,-0.0211,-0.0094,0.0033,0.0026,0.0173,0.0188,0.0294,0.0295,0.0308,0.0309,0.0298,0.0298,0.0298,0.0298,0.0298,0,-0.053,-0.0572,-0.0615,-0.0648,-0.0688,-0.0668,-0.0679,-0.0634,-0.0572,-0.0547,-0.0431,-0.0369,-0.0204,-0.0093,0.0016,0.0176,0.0175,0.029,0.0322,0.0294,0.0294,0.0261,0.0257,0.0299,0.0299,0.0298,0.0298,0,-0.0574,-0.0606,-0.068,-0.0715,-0.072,-0.0746,-0.0747,-0.0741,-0.0671,-0.0633,-0.0608,-0.0456,-0.0304,-0.0137,0.0048,0.0155,0.0302,0.0369,0.0296,0.0321,0.0363,0.0356,0.0452,0.0454,0.0456,0.0457,0.0458,0,-0.0593,-0.0646,-0.0736,-0.0777,-0.0795,-0.0825,-0.0833,-0.0788,-0.0773,-0.0675,-0.0652,-0.0501,-0.0363,-0.0084,0.0135,0.0341,0.0358,0.0441,0.0449,0.0366,0.0387,0.0378,0.0369,0.0428,0.0429,0.0429,0.043,0,-0.0632,-0.0681,-0.0756,-0.0846,-0.0883,-0.0922,-0.0926,-0.0927,-0.0859,-0.0808,-0.0695,-0.0584,-0.03,-0.005,0.0234,0.0356,0.0402,0.0462,0.0428,0.0405,0.035,0.0369,0.036,0.0436,0.0436,0.0435,0.0435,0.0435,-0.0648,-0.0721,-0.083,-0.0914,-0.0961,-0.0985,-0.0999,-0.098,-0.0947,-0.0836,-0.0727,-0.0525,-0.0297,0.0122,0.0313,0.0494,0.0485,0.0527,0.0521,0.0516,0.0523,0.0477,0.0582,0.0583,0.0583,0.0583,0.0583,0,-0.0664,-0.0772,-0.0873,-0.0971,-0.1021,-0.1028,-0.1035,-0.1016,-0.0966,-0.0826,-0.0692,-0.041,-0.0121,0.0121,0.0412,0.0572,0.055,0.0594,0.053,0.0524,0.0518,0.0522,0.0583,0.0583,0.0584,0.0584,0,0,-0.0681,-0.0809,-0.089,-0.0992,-0.1042,-0.1064,-0.1059,-0.1018,-0.0917,-0.0774,-0.0607,-0.0384,-0.0092,0.011,0.031,0.0459,0.0447,0.0471,0.0456,0.0351,0.0343,0.0467,0.0465,0,0,0,0,0]}],[{"header":{"parameterUnit":"m.s-1","parameterCategory":2,"la1":30.2991,"la2":30.254,"lo1":-89.0895,"lo2":-89.0444,"dy":0.0017,"dx":0.0017,"nx":28,"ny":28,"refTime":"2026-02-10T09:00:00:Z","depth":"4","parameterNumber":2,"parameterNumberName":"U-component_of_CURRENTS"},"data":[0,0,0,0,0,0,0,0,0,0,0,0,0,0,0,0,0,0,0,0,0,0,0,0,0,0,0,0,0,0,0,0,0,0,0,0,0,0,0,0,0,0,0,0,0,0,0,0,0,0,0,0,0,0,0,0,0,0,-0.1284,-0.1285,0,-0.1335,-0.1336,-0.1336,-0.1384,-0.1385,-0.1385,-0.1386,-0.144,-0.1441,-0.1442,0,0,0,0,0,0,0,0,0,0,0,0,0,-0.1217,-0.1218,-0.1284,-0.1285,-0.1285,-0.1335,-0.1336,-0.1336,-0.1384,-0.1385,-0.1385,-0.1386,-0.144,-0.1441,-0.1442,0,0,0,0,0,0,0,0,0,0,0,0,0,-0.1254,-0.1218,-0.1284,-0.1316,-0.1319,-0.1335,-0.1336,-0.1337,-0.1384,-0.1385,-0.1386,-0.1387,-0.144,-0.1441,-0.1442,-0.143,0,0,-0.1446,-0.1447,0,0,0,0,0,0,0,0,-0.1252,-0.1257,-0.131,-0.1313,-0.1317,-0.1355,-0.1332,-0.1368,-0.1383,-0.1358,-0.1386,-0.1387,-0.1412,-0.1415,-0.1422,-0.1432,-0.1435,-0.1446,-0.1447,-0.1447,-0.1448,0,0,0,0,0,0,0,-0.1249,-0.1255,-0.1303,-0.1311,-0.1315,-0.1324,-0.133,-0.1339,-0.1378,-0.136,-0.1364,-0.1371,-0.1414,-0.142,-0.1423,-0.1436,-0.1446,-0.1447,-0.1448,-0.1448,-0.1526,-0.1527,0,0,0,0,0,0,-0.1244,-0.1252,-0.1302,-0.1305,-0.1287,-0.1325,-0.1332,-0.1341,-0.1378,-0.1385,-0.137,-0.1373,-0.1418,-0.1422,-0.1425,-0.149,-0.1447,-0.1449,-0.1449,-0.1525,-0.1526,-0.1528,0,0,0,0,0,0,-0.1243,-0.1248,-0.13,-0.128,-0.1288,-0.1325,-0.1335,-0.1342,-0.1372,-0.1386,-0.1393,-0.1397,-0.1419,-0.1424,-0.1463,-0.1489,-0.1449,-0.145,-0.1523,-0.1525,-0.1527,-0.1569,0,0,0,0,0,0,-0.1241,-0.1247,-0.1262,-0.128,-0.1289,-0.1323,-0.1334,-0.1342,-0.1374,-0.1379,-0.141,-0.1415,-0.142,-0.1461,-0.1464,-0.149,-0.1451,-0.1521,-0.1524,-0.1526,-0.1566,-0.1572,-0.1577,0,0,0,0,0,-0.1238,-0.1246,-0.1262,-0.1269,-0.1304,-0.1324,-0.1329,-0.1358,-0.1374,-0.1389,-0.142,-0.1415,-0.1479,-0.1463,-0.1467,-0.1493,-0.152,-0.1523,-0.1526,-0.1563,-0.1571,-0.1577,0,0,0,0,0,0,-0.1222,-0.1253,-0.127,-0.1288,-0.1313,-0.1333,-0.1347,-0.1369,-0.1403,-0.1415,-0.143,-0.1437,-0.1482,-0.1481,-0.1464,-0.1524,-0.1499,-0.1503,-0.1527,-0.1534,-0.1539,-0.1539,-0.1452,0,0,0,0,0,-0.1225,-0.1243,-0.1271,-0.1287,-0.13,-0.1328,-0.1344,-0.1366,-0.1393,-0.1411,-0.1438,-0.1465,-0.1491,-0.1509,-0.1528,-0.1557,-0.155,-0.1577,-0.1583,-0.1588,-0.1591,-0.1602,-0.1609,-0.1537,-0.1537,-0.1537,0,0,-0.1223,-0.1242,-0.1253,-0.1286,-0.1305,-0.1334,-0.1341,-0.1369,-0.1404,-0.1409,-0.1469,-0.1487,-0.1504,-0.1544,-0.1563,-0.155,-0.1606,-0.1592,-0.1595,-0.1596,-0.1606,-0.1613,-0.1619,-0.1539,-0.1539,-0.1539,0,0,-0.1216,-0.1244,-0.1256,-0.1283,-0.132,-0.1343,-0.1357,-0.1396,-0.1426,-0.1477,-0.1494,-0.1532,-0.1571,-0.1592,-0.1605,-0.1652,-0.1637,-0.1659,-0.1689,-0.17,-0.1706,-0.1711,-0.1714,-0.1719,-0.1662,-0.1662,-0.1662,0,-0.1218,-0.1237,-0.1262,-0.1286,-0.1315,-0.1352,-0.1381,-0.1415,-0.1468,-0.1496,-0.1505,-0.158,-0.1595,-0.1642,-0.1663,-0.1666,-0.1664,-0.166,-0.1707,-0.1711,-0.1715,-0.1718,-0.1723,-0.1664,-0.1664,-0.1664,-0.1664,0,-0.1212,-0.1248,-0.1257,-0.1307,-0.1342,-0.137,-0.1423,-0.1468,-0.1513,-0.1547,-0.1611,-0.1636,-0.1678,-0.1692,-0.1694,-0.1737,-0.1724,-0.1711,-0.1686,-0.1725,-0.1726,-0.173,-0.1668,-0.1667,-0.1666,-0.1666,0,0,-0.1163,-0.1241,-0.1247,-0.1286,-0.136,-0.1385,-0.1454,-0.1518,-0.156,-0.162,-0.1668,-0.1726,-0.174,-0.1755,-0.1763,-0.1777,-0.1809,-0.176,-0.176,-0.1758,-0.183,-0.1703,-0.1696,-0.1802,-0.1803,-0.1804,-0.1819,0,-0.1156,-0.1206,-0.1251,-0.1318,-0.1352,-0.1424,-0.1481,-0.155,-0.1606,-0.1661,-0.1704,-0.1751,-0.1763,-0.1782,-0.1802,-0.1808,-0.1822,-0.1806,-0.1797,-0.1796,-0.1674,-0.1697,-0.1807,-0.1822,-0.1822,-0.1823,-0.1824,0,-0.1124,-0.1174,-0.1234,-0.1335,-0.1356,-0.1408,-0.1508,-0.1563,-0.1649,-0.1689,-0.1749,-0.1779,-0.1833,-0.1819,-0.1864,-0.1853,-0.1848,-0.1846,-0.1846,-0.1714,-0.1677,-0.1774,-0.1831,-0.183,-0.183,-0.1829,-0.1829,0,-0.106,-0.1156,-0.121,-0.1245,-0.1362,-0.1412,-0.1478,-0.1574,-0.162,-0.1708,-0.1746,-0.1809,-0.1845,-0.1859,-0.188,-0.1873,-0.1903,-0.1889,-0.1772,-0.1763,-0.1855,-0.1849,-0.1905,-0.1905,-0.1905,-0.1905,-0.1905,0,-0.102,-0.1064,-0.1191,-0.122,-0.1285,-0.1386,-0.1449,-0.1523,-0.1615,-0.1665,-0.1754,-0.1792,-0.1857,-0.1888,-0.1887,-0.1843,-0.1915,-0.1776,-0.1756,-0.1873,-0.187,-0.1858,-0.1852,-0.1906,-0.1906,-0.1906,-0.1905,0,-0.093,-0.1014,-0.108,-0.1214,-0.1254,-0.1301,-0.1421,-0.1465,-0.1573,-0.164,-0.1673,-0.1789,-0.1827,-0.1869,-0.189,-0.184,-0.1814,-0.1778,-0.1906,-0.1894,-0.1665,-0.1662,-0.164,-0.1636,-0.1632,-0.1629,-0.1626,0,-0.0884,-0.091,-0.1046,-0.108,-0.1142,-0.1226,-0.128,-0.1418,-0.1472,-0.1627,-0.1652,-0.1735,-0.1791,-0.1726,-0.1778,-0.1753,-0.1732,-0.1711,-0.168,-0.1653,-0.1637,-0.164,-0.1642,-0.162,-0.1619,-0.1618,-0.1618,0,-0.0794,-0.0849,-0.0904,-0.097,-0.104,-0.1115,-0.1214,-0.1243,-0.1407,-0.1515,-0.1577,-0.1599,-0.1632,-0.1643,-0.1633,-0.1619,-0.1719,-0.1672,-0.1679,-0.165,-0.1629,-0.1618,-0.1624,-0.1605,-0.1606,-0.1608,-0.1608,0,-0.0719,-0.0727,-0.0796,-0.0847,-0.0929,-0.0997,-0.1064,-0.115,-0.1226,-0.1418,-0.1429,-0.1525,-0.1617,-0.1574,-0.1572,-0.1538,-0.1508,-0.1457,-0.1475,-0.149,-0.1432,-0.1383,-0.1263,0,0,0,0,0,-0.0644,-0.0639,-0.0666,-0.0738,-0.0816,-0.0875,-0.1018,-0.1101,-0.1264,-0.1265,-0.1346,-0.1372,-0.138,-0.1431,-0.136,-0.1489,-0.1506,-0.14,-0.1454,-0.1533,-0.1548,-0.1492,0,0,0,0,0,0,-0.0596,-0.0609,-0.0624,-0.0636,-0.0664,-0.076,-0.0856,-0.0976,-0.0993,-0.1148,-0.1156,-0.1263,-0.1284,-0.1379,-0.1318,-0.133,-0.1331,-0.1457,-0.1453,-0.1524,-0.1538,-0.155,-0.1497,0,0,0,0,0]},{"header":{"parameterUnit":"m.s-1","parameterCategory":2,"la1":30.2991,"la2":30.254,"lo1":-89.0895,"lo2":-89.0444,"dy":0.0017,"dx":0.0017,"nx":28,"ny":28,"refTime":"2026-02-10T09:00:00:Z","depth":"4","parameterNumber":3,"parameterNumberName":"V-component_of_CURRENTS"},"data":[0,0,0,0,0,0,0,0,0,0,0,0,0,0,0,0,0,0,0,0,0,0,0,0,0,0,0,0,0,0,0,0,0,0,0,0,0,0,0,0,0,0,0,0,0,0,0,0,0,0,0,0,0,0,0,0,0,0,-0.0242,-0.0242,0,-0.0235,-0.0235,-0.0234,-0.0208,-0.0207,-0.0207,-0.0206,-0.0154,-0.0154,-0.0153,0,0,0,0,0,0,0,0,0,0,0,0,0,-0.0206,-0.0207,-0.0242,-0.0242,-0.0242,-0.0235,-0.0235,-0.0234,-0.0208,-0.0207,-0.0207,-0.0206,-0.0155,-0.0154,-0.0152,0,0,0,0,0,0,0,0,0,0,0,0,0,-0.0211,-0.0207,-0.0242,-0.0229,-0.0228,-0.0235,-0.0235,-0.0234,-0.0208,-0.0207,-0.0207,-0.0206,-0.0155,-0.0154,-0.0152,-0.0156,0,0,-0.0148,-0.0147,0,0,0,0,0,0,0,0,-0.0211,-0.0212,-0.0231,-0.023,-0.0229,-0.0223,-0.0203,-0.0207,-0.0208,-0.0214,-0.0206,-0.0206,-0.0175,-0.0172,-0.017,-0.0154,-0.0152,-0.0148,-0.0147,-0.0146,-0.0146,0,0,0,0,0,0,0,-0.021,-0.0212,-0.0237,-0.0231,-0.023,-0.0215,-0.0215,-0.0203,-0.0196,-0.0213,-0.0212,-0.0214,-0.0174,-0.0171,-0.0168,-0.0151,-0.0148,-0.0146,-0.0146,-0.0145,-0.0118,-0.0118,0,0,0,0,0,0,-0.0217,-0.0212,-0.0237,-0.0237,-0.022,-0.0217,-0.0217,-0.0224,-0.0197,-0.0193,-0.0215,-0.0213,-0.0174,-0.017,-0.0166,-0.0164,-0.0146,-0.0145,-0.0144,-0.0118,-0.0118,-0.0118,0,0,0,0,0,0,-0.0217,-0.022,-0.0238,-0.0225,-0.0227,-0.0218,-0.0227,-0.0224,-0.0222,-0.0199,-0.0194,-0.0215,-0.0174,-0.0168,-0.0159,-0.0162,-0.0144,-0.0143,-0.0117,-0.0118,-0.0118,-0.0162,0,0,0,0,0,0,-0.0216,-0.022,-0.0227,-0.0226,-0.0228,-0.0249,-0.0228,-0.0225,-0.0226,-0.0223,-0.0198,-0.0192,-0.0173,-0.0161,-0.0158,-0.0159,-0.0142,-0.0117,-0.0118,-0.0118,-0.0161,-0.0164,-0.0167,0,0,0,0,0,-0.0215,-0.0233,-0.0227,-0.023,-0.0238,-0.025,-0.0249,-0.0239,-0.0226,-0.0232,-0.0212,-0.0193,-0.016,-0.0161,-0.0156,-0.0158,-0.0117,-0.0117,-0.0118,-0.0159,-0.0163,-0.0167,0,0,0,0,0,0,-0.0217,-0.0232,-0.0226,-0.0246,-0.0249,-0.0246,-0.0252,-0.0243,-0.0233,-0.0228,-0.02,-0.0194,-0.0185,-0.0167,-0.0168,-0.015,-0.0133,-0.0133,-0.0167,-0.017,-0.0173,-0.0178,-0.014,0,0,0,0,0,-0.0223,-0.0242,-0.0246,-0.0261,-0.0265,-0.0258,-0.026,-0.0255,-0.0247,-0.0242,-0.0223,-0.0201,-0.0183,-0.0174,-0.0158,-0.0152,-0.012,-0.0148,-0.0151,-0.0154,-0.0154,-0.012,-0.012,-0.0119,-0.0119,-0.0119,0,0,-0.0229,-0.0239,-0.0249,-0.0264,-0.0264,-0.0277,-0.0257,-0.0268,-0.0271,-0.0238,-0.0235,-0.0214,-0.0185,-0.0177,-0.0171,-0.0162,-0.0135,-0.0155,-0.0157,-0.0156,-0.0121,-0.0121,-0.0121,-0.0119,-0.0119,-0.0119,0,0,-0.0256,-0.0258,-0.0284,-0.029,-0.0299,-0.0295,-0.03,-0.0298,-0.0289,-0.0289,-0.026,-0.0242,-0.0222,-0.0198,-0.0184,-0.0195,-0.0154,-0.0189,-0.0208,-0.0175,-0.0175,-0.0174,-0.0122,-0.0116,-0.0189,-0.0189,-0.0189,0,-0.0258,-0.0292,-0.0292,-0.0314,-0.0323,-0.0305,-0.0328,-0.0318,-0.0311,-0.0304,-0.0294,-0.0255,-0.0231,-0.0211,-0.0213,-0.0202,-0.0171,-0.0198,-0.0179,-0.0178,-0.0177,-0.0123,-0.0117,-0.0191,-0.0191,-0.0191,-0.0191,0,-0.0305,-0.0326,-0.0342,-0.0364,-0.0372,-0.0389,-0.0379,-0.0376,-0.0361,-0.0347,-0.0328,-0.0295,-0.0269,-0.0258,-0.0239,-0.0217,-0.0193,-0.0189,-0.0172,-0.018,-0.0123,-0.0115,-0.0194,-0.0194,-0.0193,-0.0192,0,0,-0.0321,-0.0367,-0.0372,-0.0391,-0.04,-0.0414,-0.0415,-0.0414,-0.041,-0.0388,-0.0379,-0.0343,-0.0317,-0.0299,-0.0267,-0.0238,-0.0197,-0.0213,-0.021,-0.0164,-0.0108,-0.0094,-0.0083,-0.0193,-0.0192,-0.0191,-0.0067,0,-0.0355,-0.0416,-0.0424,-0.0466,-0.0493,-0.0476,-0.0481,-0.0471,-0.045,-0.0432,-0.0384,-0.0366,-0.0334,-0.0321,-0.0286,-0.0221,-0.018,-0.0229,-0.0104,-0.01,-0.0089,-0.0076,-0.0189,-0.0061,-0.0059,-0.0058,-0.0057,0,-0.0395,-0.0433,-0.0491,-0.0523,-0.0532,-0.0549,-0.0551,-0.0552,-0.0513,-0.0493,-0.0456,-0.0415,-0.0359,-0.0339,-0.0223,-0.0256,-0.0185,-0.0133,-0.0127,-0.0094,-0.0072,-0.0053,-0.0043,-0.0044,-0.0045,-0.0046,-0.0047,0,-0.0419,-0.0474,-0.0526,-0.0539,-0.0571,-0.0585,-0.0594,-0.0573,-0.0569,-0.0528,-0.0511,-0.0443,-0.0398,-0.0315,-0.0193,-0.0211,-0.0059,-0.0068,0.0017,0.002,-0.001,-0.0012,0.0013,0.0013,0.0013,0.0012,0.0012,0,-0.0449,-0.0488,-0.0545,-0.0571,-0.0621,-0.0625,-0.0652,-0.0641,-0.0619,-0.0607,-0.0544,-0.0504,-0.0391,-0.0288,-0.0194,-0.0051,-0.0051,0.0023,0.0051,-0.0029,-0.0035,-0.0003,-0.0007,0.0017,0.0016,0.0015,0.0014,0,-0.046,-0.0502,-0.0563,-0.0617,-0.0636,-0.067,-0.0698,-0.0705,-0.0677,-0.0656,-0.0643,-0.0537,-0.0401,-0.027,-0.0113,-0.0043,0.0081,0.0133,0.0063,0.0083,0.0139,0.0132,0.0228,0.0229,0.0231,0.0232,0.0233,0,-0.0471,-0.0507,-0.0597,-0.0639,-0.0667,-0.0714,-0.074,-0.0737,-0.0733,-0.0668,-0.065,-0.052,-0.0435,-0.0181,-0.0061,0.0133,0.0152,0.0215,0.015,0.0143,0.016,0.0151,0.0142,0.0235,0.0235,0.0235,0.0236,0,-0.048,-0.052,-0.0572,-0.066,-0.0713,-0.0763,-0.0792,-0.0791,-0.0768,-0.0747,-0.0632,-0.0504,-0.0339,-0.0166,-0.0002,0.0126,0.0165,0.0228,0.0225,0.0165,0.0152,0.0166,0.0156,0.024,0.0239,0.0239,0.0239,0,-0.048,-0.0521,-0.0596,-0.0669,-0.0742,-0.0785,-0.0803,-0.0781,-0.0771,-0.0693,-0.0651,-0.0478,-0.0378,-0.0166,-0.0021,0.0113,0.0125,0.0141,0.0143,0.014,0.0065,0.0032,0.0115,0,0,0,0,0,-0.0469,-0.0517,-0.0593,-0.068,-0.0752,-0.0789,-0.0823,-0.0826,-0.0803,-0.0723,-0.0684,-0.0527,-0.0296,-0.0191,-0.0053,-0.0022,0.0132,0.014,0.0147,0.0264,0.0259,0.0185,0,0,0,0,0,0,-0.0468,-0.0534,-0.0585,-0.067,-0.0723,-0.0792,-0.0815,-0.0804,-0.0748,-0.0704,-0.0571,-0.0507,-0.0275,-0.0366,-0.005,-0.0011,0.0007,0.025,0.0252,0.0267,0.0262,0.0258,0.0181,0,0,0,0,0]}]]